Location: Oberkirch
(48.5323°N, 8.0787°E)
Time: 17:07:27
(UTC+00:00)

Cosmos 1300 Rocket - Pass Details

Date: 08 November 2025
Orbit: 594 x 620 km, 82.5° (Epoch: 12 December)

Event Time Altitude Azimuth Distance (km) Brightness Sun altitude
Rises 04:14:40 0° 354° (N) 2,885 6.9 -21.7°
Reaches altitude 10° 04:16:57 10° 359° (N) 1,972 6.1 -21.3°
Maximum altitude 04:21:13 51° 76° (ENE) 762 4.3 -20.6°
Drops below altitude 10° 04:25:24 10° 153° (SSE) 1,940 6.5 -19.9°
Sets 04:27:38 0° 159° (SSE) 2,834 7.3 -19.6°
